Darstellungsparameter: Aktuell verwendete Einstellungen:
Skalierung der Graphiken ... ?
xyx+y,   Skalierungsfaktor:      Skalierung: Modus: x, Faktor: 1
Darstellungszeitraum ... ?
Vom - - bis: - -   Zeitraum: 15.07.2019 - 17.07.2019
Min/Max/Avg-Anzeige ... ?
Zeige MMA aktuell
Zeige MMA Monat
Zeige MMA alles
Zeige --A aktuell
Zeige --A Monat
Zeige --A alles
Keine MMA-Anzeige
MMA:
Keine MMA-Graphiken
MMA-Basis: 15.07.2019 - 17.07.2019
Quicknavigation für Darstellung... ?
Tage:      1T, 2T, 3T, 5T -1T -2T -3T -5T +1T +2T +3T +5T
Wochen: 1W, 2W, 3W -1W -2W -3W +1W +2W +3W
Monate: 1M, 3M, 6M -1M -3M -6M +1M +3M +6M
Jahre:    1J, 3J, 5J, 10J -1J -3J -5J -10J +1J +3J +5J +10J
Nutze für die Darstellung ... ?
Originaldaten oder Mittelwerte auf ...
Stundenbasis Tagesbasis Wochenbasis
Monatsbasis Jahresbasis      Datenbasis: Original-Daten
Darstellen als:
Statistik (Auto) Statistik J:M      Darstellung:
Zur Graphik,    zurück zur Übersicht aller Sensoren.
 
Tabellarische Datenbersicht: ?
 
Sensor: Nr:Datum:Temp:Feuchte:Taupunkt:
Aussen-T/F 1 15-07-2019 00:00:00 16.4 C 76 % 12.16 C
2 15-07-2019 00:05:00 16.3 C 74 % 11.66 C
3 15-07-2019 00:10:00 16.3 C 76 % 12.07 C
4 15-07-2019 00:15:00 16.2 C 74 % 11.56 C
5 15-07-2019 00:20:00 16.2 C 75 % 11.77 C
6 15-07-2019 00:25:00 16.2 C 77 % 12.17 C
7 15-07-2019 00:30:00 16.1 C 77 % 12.07 C
8 15-07-2019 00:35:00 16 C 78 % 12.17 C
9 15-07-2019 00:40:00 15.9 C 78 % 12.07 C
10 15-07-2019 00:45:00 15.8 C 78 % 11.97 C
11 15-07-2019 00:50:00 15.7 C 79 % 12.07 C
12 15-07-2019 00:55:00 15.7 C 79 % 12.07 C
13 15-07-2019 01:00:00 15.6 C 80 % 12.16 C
14 15-07-2019 01:05:00 15.5 C 80 % 12.07 C
15 15-07-2019 01:10:00 15.4 C 80 % 11.97 C
16 15-07-2019 01:15:00 15.4 C 81 % 12.16 C
17 15-07-2019 01:20:00 15.4 C 81 % 12.16 C
18 15-07-2019 01:25:00 15.4 C 79 % 11.78 C
19 15-07-2019 01:30:00 15.6 C 78 % 11.78 C
20 15-07-2019 01:35:00 15.8 C 77 % 11.78 C
21 15-07-2019 01:40:00 15.8 C 77 % 11.78 C
22 15-07-2019 01:45:00 15.9 C 78 % 12.07 C
23 15-07-2019 01:50:00 15.9 C 77 % 11.88 C
24 15-07-2019 01:55:00 15.9 C 77 % 11.88 C
25 15-07-2019 02:00:00 15.8 C 77 % 11.78 C
Sensor: Nr:Datum:Temp:Feuchte:Taupunkt:
Aussen-T/F 26 15-07-2019 02:05:00 15.8 C 78 % 11.97 C
27 15-07-2019 02:10:00 15.8 C 79 % 12.17 C
28 15-07-2019 02:15:00 15.8 C 80 % 12.36 C
29 15-07-2019 02:20:00 15.7 C 80 % 12.26 C
30 15-07-2019 02:25:00 15.7 C 81 % 12.45 C
31 15-07-2019 02:30:00 15.6 C 81 % 12.35 C
32 15-07-2019 02:35:00 15.4 C 81 % 12.16 C
33 15-07-2019 02:40:00 15.4 C 81 % 12.16 C
34 15-07-2019 02:45:00 15.3 C 82 % 12.25 C
35 15-07-2019 02:50:00 15.2 C 82 % 12.15 C
36 15-07-2019 02:55:00 15.2 C 82 % 12.15 C
37 15-07-2019 03:00:00 15.2 C 83 % 12.33 C
38 15-07-2019 03:05:00 15.1 C 83 % 12.24 C
39 15-07-2019 03:10:00 15.1 C 83 % 12.24 C
40 15-07-2019 03:15:00 15.1 C 83 % 12.24 C
41 15-07-2019 03:20:00 15 C 84 % 12.32 C
42 15-07-2019 03:25:00 15 C 83 % 12.14 C
43 15-07-2019 03:30:00 14.9 C 84 % 12.22 C
44 15-07-2019 03:35:00 14.9 C 84 % 12.22 C
45 15-07-2019 03:40:00 14.9 C 84 % 12.22 C
46 15-07-2019 03:45:00 14.9 C 83 % 12.04 C
47 15-07-2019 03:50:00 14.9 C 84 % 12.22 C
48 15-07-2019 03:55:00 14.9 C 84 % 12.22 C
49 15-07-2019 04:00:00 14.8 C 82 % 11.76 C
50 15-07-2019 04:05:00 14.8 C 80 % 11.39 C
Sensor: Nr:Datum:Temp:Feuchte:Taupunkt:
Aussen-T/F 51 15-07-2019 04:10:00 14.9 C 78 % 11.1 C
52 15-07-2019 04:15:00 15.2 C 77 % 11.2 C
53 15-07-2019 04:20:00 15.3 C 78 % 11.49 C
54 15-07-2019 04:25:00 15.4 C 78 % 11.59 C
55 15-07-2019 04:30:00 15.5 C 78 % 11.68 C
56 15-07-2019 04:35:00 15.5 C 78 % 11.68 C
57 15-07-2019 04:40:00 15.5 C 78 % 11.68 C
58 15-07-2019 04:45:00 15.6 C 78 % 11.78 C
59 15-07-2019 04:50:00 15.6 C 77 % 11.59 C
60 15-07-2019 04:55:00 15.6 C 77 % 11.59 C
61 15-07-2019 05:00:00 15.6 C 75 % 11.19 C
62 15-07-2019 05:05:00 15.7 C 75 % 11.28 C
63 15-07-2019 05:10:00 15.7 C 74 % 11.08 C
64 15-07-2019 05:15:00 15.7 C 74 % 11.08 C
65 15-07-2019 05:20:00 15.7 C 74 % 11.08 C
66 15-07-2019 05:25:00 15.7 C 75 % 11.28 C
67 15-07-2019 05:30:00 15.7 C 76 % 11.48 C
68 15-07-2019 05:35:00 15.6 C 75 % 11.19 C
69 15-07-2019 05:40:00 15.6 C 74 % 10.99 C
70 15-07-2019 05:45:00 15.6 C 74 % 10.99 C
71 15-07-2019 05:50:00 15.6 C 74 % 10.99 C
72 15-07-2019 05:55:00 15.6 C 73 % 10.78 C
73 15-07-2019 06:00:00 15.6 C 74 % 10.99 C
74 15-07-2019 06:05:00 15.6 C 74 % 10.99 C
75 15-07-2019 06:10:00 15.6 C 74 % 10.99 C
Sensor: Nr:Datum:Temp:Feuchte:Taupunkt:
Aussen-T/F 76 15-07-2019 06:15:00 15.6 C 74 % 10.99 C
77 15-07-2019 06:20:00 15.6 C 74 % 10.99 C
78 15-07-2019 06:25:00 15.6 C 74 % 10.99 C
79 15-07-2019 06:30:00 15.6 C 74 % 10.99 C
80 15-07-2019 06:35:00 15.6 C 74 % 10.99 C
81 15-07-2019 06:40:00 15.6 C 74 % 10.99 C
82 15-07-2019 06:45:00 15.6 C 74 % 10.99 C
83 15-07-2019 06:50:00 15.6 C 75 % 11.19 C
84 15-07-2019 06:55:00 15.6 C 75 % 11.19 C
85 15-07-2019 07:00:00 15.6 C 75 % 11.19 C
86 15-07-2019 07:05:00 15.7 C 75 % 11.28 C
87 15-07-2019 07:10:00 15.7 C 75 % 11.28 C
88 15-07-2019 07:15:00 15.7 C 74 % 11.08 C
89 15-07-2019 07:20:00 15.7 C 75 % 11.28 C
90 15-07-2019 07:25:00 15.7 C 74 % 11.08 C
91 15-07-2019 07:30:00 15.7 C 73 % 10.88 C
92 15-07-2019 07:35:00 15.7 C 73 % 10.88 C
93 15-07-2019 07:40:00 15.7 C 73 % 10.88 C
94 15-07-2019 07:45:00 15.7 C 73 % 10.88 C
95 15-07-2019 07:50:00 15.7 C 74 % 11.08 C
96 15-07-2019 07:55:00 15.7 C 74 % 11.08 C
97 15-07-2019 08:00:00 15.7 C 74 % 11.08 C
98 15-07-2019 08:05:00 15.7 C 74 % 11.08 C
99 15-07-2019 08:10:00 15.7 C 75 % 11.28 C
100 15-07-2019 08:15:00 15.7 C 74 % 11.08 C
Sensor: Nr:Datum:Temp:Feuchte:Taupunkt:
Aussen-T/F 101 15-07-2019 08:20:00 15.7 C 74 % 11.08 C
102 15-07-2019 08:25:00 15.7 C 74 % 11.08 C
103 15-07-2019 08:30:00 15.8 C 74 % 11.18 C
104 15-07-2019 08:35:00 15.8 C 75 % 11.38 C
105 15-07-2019 08:40:00 15.9 C 74 % 11.28 C
106 15-07-2019 08:45:00 16 C 74 % 11.37 C
107 15-07-2019 08:50:00 16.1 C 73 % 11.26 C
108 15-07-2019 08:55:00 16.2 C 74 % 11.56 C
109 15-07-2019 09:00:00 16.3 C 73 % 11.46 C
110 15-07-2019 09:05:00 16.3 C 73 % 11.46 C
111 15-07-2019 09:10:00 16.3 C 72 % 11.25 C
112 15-07-2019 09:15:00 16.4 C 72 % 11.34 C
113 15-07-2019 09:20:00 16.4 C 71 % 11.13 C
114 15-07-2019 09:25:00 16.5 C 72 % 11.44 C
115 15-07-2019 09:30:00 16.6 C 72 % 11.54 C
116 15-07-2019 09:35:00 16.7 C 70 % 11.21 C
117 15-07-2019 09:40:00 16.7 C 70 % 11.21 C
118 15-07-2019 09:45:00 16.7 C 72 % 11.63 C
119 15-07-2019 09:50:00 16.7 C 70 % 11.21 C
120 15-07-2019 09:55:00 16.8 C 70 % 11.3 C
121 15-07-2019 10:00:00 16.8 C 70 % 11.3 C
122 15-07-2019 10:05:00 16.8 C 70 % 11.3 C
123 15-07-2019 10:10:00 16.8 C 69 % 11.09 C
124 15-07-2019 10:15:00 16.8 C 69 % 11.09 C
125 15-07-2019 10:20:00 16.8 C 70 % 11.3 C
Sensor: Nr:Datum:Temp:Feuchte:Taupunkt:
Aussen-T/F 126 15-07-2019 10:25:00 16.8 C 72 % 11.73 C
127 15-07-2019 10:30:00 16.8 C 74 % 12.14 C
128 15-07-2019 10:35:00 16.8 C 74 % 12.14 C
129 15-07-2019 10:40:00 16.8 C 74 % 12.14 C
130 15-07-2019 10:45:00 16.8 C 75 % 12.35 C
131 15-07-2019 10:50:00 16.8 C 75 % 12.35 C
132 15-07-2019 10:55:00 16.8 C 74 % 12.14 C
133 15-07-2019 11:00:00 16.8 C 75 % 12.35 C
134 15-07-2019 11:05:00 16.8 C 74 % 12.14 C
135 15-07-2019 11:10:00 16.8 C 74 % 12.14 C
136 15-07-2019 11:15:00 16.8 C 75 % 12.35 C
137 15-07-2019 11:20:00 16.8 C 74 % 12.14 C
138 15-07-2019 11:25:00 16.8 C 74 % 12.14 C
139 15-07-2019 11:30:00 16.8 C 74 % 12.14 C
140 15-07-2019 11:35:00 16.8 C 74 % 12.14 C
141 15-07-2019 11:40:00 16.9 C 75 % 12.44 C
142 15-07-2019 11:45:00 16.9 C 75 % 12.44 C
143 15-07-2019 11:50:00 16.9 C 75 % 12.44 C
144 15-07-2019 11:55:00 17 C 74 % 12.34 C
145 15-07-2019 12:00:00 17 C 74 % 12.34 C
146 15-07-2019 12:05:00 17 C 74 % 12.34 C
147 15-07-2019 12:10:00 17.1 C 73 % 12.23 C
148 15-07-2019 12:15:00 17 C 72 % 11.92 C
149 15-07-2019 12:20:00 17.1 C 72 % 12.02 C
150 15-07-2019 12:25:00 17.1 C 73 % 12.23 C
Sensor: Nr:Datum:Temp:Feuchte:Taupunkt:
Aussen-T/F 151 15-07-2019 12:30:00 17.1 C 73 % 12.23 C
152 15-07-2019 12:35:00 17.2 C 73 % 12.32 C
153 15-07-2019 12:40:00 17.2 C 72 % 12.11 C
154 15-07-2019 12:45:00 17.2 C 72 % 12.11 C
155 15-07-2019 12:50:00 17.2 C 73 % 12.32 C
156 15-07-2019 12:55:00 17.1 C 73 % 12.23 C
157 15-07-2019 13:00:00 17.2 C 72 % 12.11 C
158 15-07-2019 13:05:00 17.2 C 71 % 11.9 C
159 15-07-2019 13:10:00 17.2 C 72 % 12.11 C
160 15-07-2019 13:15:00 17.3 C 70 % 11.78 C
161 15-07-2019 13:20:00 17.3 C 70 % 11.78 C
162 15-07-2019 13:25:00 17.4 C 70 % 11.88 C
163 15-07-2019 13:30:00 17.6 C 70 % 12.07 C
164 15-07-2019 13:35:00 17.6 C 69 % 11.85 C
165 15-07-2019 13:40:00 17.7 C 69 % 11.95 C
166 15-07-2019 13:45:00 17.8 C 68 % 11.82 C
167 15-07-2019 13:50:00 17.8 C 68 % 11.82 C
168 15-07-2019 13:55:00 17.8 C 68 % 11.82 C
169 15-07-2019 14:00:00 17.9 C 68 % 11.91 C
170 15-07-2019 14:05:00 17.9 C 67 % 11.69 C
171 15-07-2019 14:10:00 18.1 C 66 % 11.65 C
172 15-07-2019 14:15:00 18.1 C 66 % 11.65 C
173 15-07-2019 14:20:00 18.2 C 66 % 11.75 C
174 15-07-2019 14:25:00 18.1 C 66 % 11.65 C
175 15-07-2019 14:30:00 18.2 C 66 % 11.75 C
Sensor: Nr:Datum:Temp:Feuchte:Taupunkt:
Aussen-T/F 176 15-07-2019 14:35:00 18.2 C 66 % 11.75 C
177 15-07-2019 14:40:00 18.2 C 66 % 11.75 C
178 15-07-2019 14:45:00 18.1 C 66 % 11.65 C
179 15-07-2019 14:50:00 18.1 C 66 % 11.65 C
180 15-07-2019 14:55:00 18 C 67 % 11.79 C
181 15-07-2019 15:00:00 18.1 C 67 % 11.88 C
182 15-07-2019 15:05:00 18.1 C 66 % 11.65 C
183 15-07-2019 15:10:00 17.9 C 67 % 11.69 C
184 15-07-2019 15:15:00 17.9 C 67 % 11.69 C
185 15-07-2019 15:20:00 17.7 C 68 % 11.72 C
186 15-07-2019 15:25:00 17.7 C 68 % 11.72 C
187 15-07-2019 15:30:00 17.6 C 67 % 11.4 C
188 15-07-2019 15:35:00 17.6 C 68 % 11.63 C
189 15-07-2019 15:40:00 17.4 C 68 % 11.44 C
190 15-07-2019 15:45:00 17.4 C 69 % 11.66 C
191 15-07-2019 15:50:00 17.4 C 70 % 11.88 C
192 15-07-2019 15:55:00 17.4 C 70 % 11.88 C
193 15-07-2019 16:00:00 17.4 C 69 % 11.66 C
194 15-07-2019 16:05:00 17.3 C 69 % 11.56 C
195 15-07-2019 16:10:00 17.3 C 70 % 11.78 C
196 15-07-2019 16:15:00 17.2 C 70 % 11.68 C
197 15-07-2019 16:20:00 17.2 C 70 % 11.68 C
198 15-07-2019 16:25:00 17.1 C 71 % 11.8 C
199 15-07-2019 16:30:00 17.1 C 71 % 11.8 C
200 15-07-2019 16:35:00 17.1 C 71 % 11.8 C
Sensor: Nr:Datum:Temp:Feuchte:Taupunkt:
Aussen-T/F 201 15-07-2019 16:40:00 17 C 71 % 11.71 C
202 15-07-2019 16:45:00 16.9 C 71 % 11.61 C
203 15-07-2019 16:50:00 16.9 C 71 % 11.61 C
204 15-07-2019 16:55:00 16.9 C 72 % 11.82 C
205 15-07-2019 17:00:00 16.9 C 71 % 11.61 C
206 15-07-2019 17:05:00 16.9 C 71 % 11.61 C
207 15-07-2019 17:10:00 16.9 C 71 % 11.61 C
208 15-07-2019 17:15:00 16.9 C 72 % 11.82 C
209 15-07-2019 17:20:00 16.8 C 71 % 11.52 C
210 15-07-2019 17:25:00 16.8 C 72 % 11.73 C
211 15-07-2019 17:30:00 16.8 C 72 % 11.73 C
212 15-07-2019 17:35:00 16.7 C 72 % 11.63 C
213 15-07-2019 17:40:00 16.7 C 72 % 11.63 C
214 15-07-2019 17:45:00 16.7 C 72 % 11.63 C
215 15-07-2019 17:50:00 16.6 C 72 % 11.54 C
216 15-07-2019 17:55:00 16.6 C 72 % 11.54 C
217 15-07-2019 18:00:00 16.6 C 72 % 11.54 C
218 15-07-2019 18:05:00 16.7 C 72 % 11.63 C
219 15-07-2019 18:10:00 16.6 C 72 % 11.54 C
220 15-07-2019 18:15:00 16.6 C 72 % 11.54 C
221 15-07-2019 18:20:00 16.6 C 72 % 11.54 C
222 15-07-2019 18:25:00 16.6 C 72 % 11.54 C
223 15-07-2019 18:30:00 16.7 C 72 % 11.63 C
224 15-07-2019 18:35:00 16.7 C 71 % 11.42 C
225 15-07-2019 18:40:00 16.7 C 71 % 11.42 C
Sensor: Nr:Datum:Temp:Feuchte:Taupunkt:
Aussen-T/F 226 15-07-2019 18:45:00 16.8 C 71 % 11.52 C
227 15-07-2019 18:50:00 16.8 C 71 % 11.52 C
228 15-07-2019 18:55:00 16.9 C 71 % 11.61 C
229 15-07-2019 19:00:00 16.9 C 70 % 11.4 C
230 15-07-2019 19:05:00 16.9 C 71 % 11.61 C
231 15-07-2019 19:10:00 16.8 C 71 % 11.52 C
232 15-07-2019 19:15:00 16.8 C 71 % 11.52 C
233 15-07-2019 19:20:00 16.8 C 71 % 11.52 C
234 15-07-2019 19:25:00 16.8 C 72 % 11.73 C
235 15-07-2019 19:30:00 16.8 C 71 % 11.52 C
236 15-07-2019 19:35:00 16.8 C 71 % 11.52 C
237 15-07-2019 19:40:00 16.7 C 71 % 11.42 C
238 15-07-2019 19:45:00 16.7 C 71 % 11.42 C
239 15-07-2019 19:50:00 16.7 C 71 % 11.42 C
240 15-07-2019 19:55:00 16.7 C 71 % 11.42 C
241 15-07-2019 20:00:00 16.7 C 70 % 11.21 C
242 15-07-2019 20:05:00 16.7 C 71 % 11.42 C
243 15-07-2019 20:10:00 16.7 C 71 % 11.42 C
244 15-07-2019 20:15:00 16.7 C 71 % 11.42 C
245 15-07-2019 20:20:00 16.7 C 71 % 11.42 C
246 15-07-2019 20:25:00 16.7 C 71 % 11.42 C
247 15-07-2019 20:30:00 16.7 C 71 % 11.42 C
248 15-07-2019 20:35:00 16.7 C 71 % 11.42 C
249 15-07-2019 20:40:00 16.7 C 72 % 11.63 C
250 15-07-2019 20:45:00 16.7 C 71 % 11.42 C
Sensor: Nr:Datum:Temp:Feuchte:Taupunkt:
Aussen-T/F 251 15-07-2019 20:50:00 16.7 C 71 % 11.42 C
252 15-07-2019 20:55:00 16.6 C 72 % 11.54 C
253 15-07-2019 21:00:00 16.6 C 72 % 11.54 C
254 15-07-2019 21:05:00 16.5 C 72 % 11.44 C
255 15-07-2019 21:10:00 16.4 C 72 % 11.34 C
256 15-07-2019 21:15:00 16.4 C 73 % 11.55 C
257 15-07-2019 21:20:00 16.4 C 73 % 11.55 C
258 15-07-2019 21:25:00 16.3 C 73 % 11.46 C
259 15-07-2019 21:30:00 16.3 C 73 % 11.46 C
260 15-07-2019 21:35:00 16.3 C 73 % 11.46 C
261 15-07-2019 21:40:00 16.3 C 76 % 12.07 C
262 15-07-2019 21:45:00 16.3 C 77 % 12.26 C
263 15-07-2019 21:50:00 16.2 C 77 % 12.17 C
264 15-07-2019 21:55:00 16.1 C 76 % 11.87 C
265 15-07-2019 22:00:00 16 C 77 % 11.97 C
266 15-07-2019 22:05:00 15.9 C 78 % 12.07 C
267 15-07-2019 22:10:00 15.8 C 78 % 11.97 C
268 15-07-2019 22:15:00 15.8 C 79 % 12.17 C
269 15-07-2019 22:20:00 15.7 C 80 % 12.26 C
270 15-07-2019 22:25:00 15.6 C 80 % 12.16 C
271 15-07-2019 22:30:00 15.6 C 80 % 12.16 C
272 15-07-2019 22:35:00 15.5 C 81 % 12.26 C
273 15-07-2019 22:40:00 15.4 C 80 % 11.97 C
274 15-07-2019 22:45:00 15.4 C 81 % 12.16 C
275 15-07-2019 22:50:00 15.4 C 81 % 12.16 C
Sensor: Nr:Datum:Temp:Feuchte:Taupunkt:
Aussen-T/F 276 15-07-2019 22:55:00 15.3 C 79 % 11.68 C
277 15-07-2019 23:00:00 15.3 C 79 % 11.68 C
278 15-07-2019 23:05:00 15.3 C 78 % 11.49 C
279 15-07-2019 23:10:00 15.4 C 77 % 11.39 C
280 15-07-2019 23:15:00 15.5 C 77 % 11.49 C
281 15-07-2019 23:20:00 15.6 C 77 % 11.59 C
282 15-07-2019 23:25:00 15.6 C 77 % 11.59 C
283 15-07-2019 23:30:00 15.6 C 77 % 11.59 C
284 15-07-2019 23:35:00 15.6 C 76 % 11.39 C
285 15-07-2019 23:40:00 15.5 C 77 % 11.49 C
286 15-07-2019 23:45:00 15.4 C 77 % 11.39 C
287 15-07-2019 23:50:00 15.3 C 77 % 11.3 C
288 15-07-2019 23:55:00 15.2 C 78 % 11.39 C
289 16-07-2019 00:00:00 15.1 C 79 % 11.49 C
290 16-07-2019 00:05:00 15 C 80 % 11.58 C
291 16-07-2019 00:10:00 14.9 C 79 % 11.29 C
292 16-07-2019 00:15:00 14.8 C 80 % 11.39 C
293 16-07-2019 00:20:00 14.8 C 80 % 11.39 C
294 16-07-2019 00:25:00 14.7 C 80 % 11.29 C
295 16-07-2019 00:30:00 14.7 C 79 % 11.1 C
296 16-07-2019 00:35:00 14.7 C 81 % 11.48 C
297 16-07-2019 00:40:00 14.6 C 80 % 11.19 C
298 16-07-2019 00:45:00 14.6 C 80 % 11.19 C
299 16-07-2019 00:50:00 14.6 C 80 % 11.19 C
300 16-07-2019 00:55:00 14.5 C 80 % 11.09 C
Sensor: Nr:Datum:Temp:Feuchte:Taupunkt:
Aussen-T/F 301 16-07-2019 01:00:00 14.4 C 79 % 10.81 C
302 16-07-2019 01:05:00 14.3 C 79 % 10.71 C
303 16-07-2019 01:10:00 14.2 C 79 % 10.61 C
304 16-07-2019 01:15:00 14 C 79 % 10.42 C
305 16-07-2019 01:20:00 13.9 C 79 % 10.32 C
306 16-07-2019 01:25:00 13.7 C 80 % 10.32 C
307 16-07-2019 01:30:00 13.6 C 81 % 10.4 C
308 16-07-2019 01:35:00 13.4 C 81 % 10.21 C
309 16-07-2019 01:40:00 13.3 C 81 % 10.11 C
310 16-07-2019 01:45:00 13.2 C 82 % 10.2 C
311 16-07-2019 01:50:00 13.1 C 82 % 10.1 C
312 16-07-2019 01:55:00 13 C 82 % 10 C
313 16-07-2019 02:00:00 12.9 C 83 % 10.09 C
314 16-07-2019 02:05:00 12.8 C 83 % 9.99 C
315 16-07-2019 02:10:00 12.7 C 84 % 10.07 C
316 16-07-2019 02:15:00 12.6 C 84 % 9.97 C
317 16-07-2019 02:20:00 12.5 C 85 % 10.05 C
318 16-07-2019 02:25:00 12.4 C 85 % 9.95 C
319 16-07-2019 02:30:00 12.2 C 86 % 9.93 C
320 16-07-2019 02:35:00 12.1 C 86 % 9.83 C
321 16-07-2019 02:40:00 11.9 C 87 % 9.81 C
322 16-07-2019 02:45:00 11.7 C 87 % 9.61 C
323 16-07-2019 02:50:00 11.6 C 88 % 9.68 C
324 16-07-2019 02:55:00 11.4 C 88 % 9.49 C
325 16-07-2019 03:00:00 11.3 C 88 % 9.39 C
Sensor: Nr:Datum:Temp:Feuchte:Taupunkt:
Aussen-T/F 326 16-07-2019 03:05:00 11.2 C 89 % 9.46 C
327 16-07-2019 03:10:00 11.2 C 90 % 9.62 C
328 16-07-2019 03:15:00 11.1 C 90 % 9.52 C
329 16-07-2019 03:20:00 10.9 C 90 % 9.33 C
330 16-07-2019 03:25:00 10.9 C 90 % 9.33 C
331 16-07-2019 03:30:00 10.8 C 91 % 9.39 C
332 16-07-2019 03:35:00 10.8 C 91 % 9.39 C
333 16-07-2019 03:40:00 10.7 C 91 % 9.29 C
334 16-07-2019 03:45:00 10.7 C 91 % 9.29 C
335 16-07-2019 03:50:00 10.6 C 91 % 9.19 C
336 16-07-2019 03:55:00 10.6 C 91 % 9.19 C
337 16-07-2019 04:00:00 10.6 C 92 % 9.36 C
338 16-07-2019 04:05:00 10.5 C 92 % 9.26 C
339 16-07-2019 04:10:00 10.5 C 92 % 9.26 C
340 16-07-2019 04:15:00 10.4 C 92 % 9.16 C
341 16-07-2019 04:20:00 10.3 C 92 % 9.06 C
342 16-07-2019 04:25:00 10.3 C 92 % 9.06 C
343 16-07-2019 04:30:00 10.2 C 92 % 8.96 C
344 16-07-2019 04:35:00 10.2 C 92 % 8.96 C
345 16-07-2019 04:40:00 10.1 C 92 % 8.86 C
346 16-07-2019 04:45:00 10.1 C 93 % 9.02 C
347 16-07-2019 04:50:00 10.1 C 93 % 9.02 C
348 16-07-2019 04:55:00 10.1 C 93 % 9.02 C
349 16-07-2019 05:00:00 10.1 C 93 % 9.02 C
350 16-07-2019 05:05:00 10.2 C 93 % 9.12 C
Sensor: Nr:Datum:Temp:Feuchte:Taupunkt:
Aussen-T/F 351 16-07-2019 05:10:00 10.1 C 93 % 9.02 C
352 16-07-2019 05:15:00 10.1 C 93 % 9.02 C
353 16-07-2019 05:20:00 10.1 C 93 % 9.02 C
354 16-07-2019 05:25:00 10 C 93 % 8.92 C
355 16-07-2019 05:30:00 10 C 93 % 8.92 C
356 16-07-2019 05:35:00 9.9 C 93 % 8.82 C
357 16-07-2019 05:40:00 9.9 C 93 % 8.82 C
358 16-07-2019 05:45:00 9.8 C 93 % 8.72 C
359 16-07-2019 05:50:00 9.8 C 94 % 8.88 C
360 16-07-2019 05:55:00 9.8 C 94 % 8.88 C
361 16-07-2019 06:00:00 9.9 C 94 % 8.98 C
362 16-07-2019 06:05:00 9.9 C 94 % 8.98 C
363 16-07-2019 06:10:00 9.9 C 94 % 8.98 C
364 16-07-2019 06:15:00 9.9 C 94 % 8.98 C
365 16-07-2019 06:20:00 9.9 C 94 % 8.98 C
366 16-07-2019 06:25:00 10 C 94 % 9.08 C
367 16-07-2019 06:30:00 10.1 C 94 % 9.18 C
368 16-07-2019 06:35:00 10.1 C 95 % 9.34 C
369 16-07-2019 06:40:00 10.3 C 95 % 9.54 C
370 16-07-2019 06:45:00 10.4 C 95 % 9.63 C
371 16-07-2019 06:50:00 10.5 C 95 % 9.73 C
372 16-07-2019 06:55:00 10.6 C 95 % 9.83 C
373 16-07-2019 07:00:00 10.6 C 94 % 9.68 C
374 16-07-2019 07:05:00 10.7 C 94 % 9.77 C
375 16-07-2019 07:10:00 10.7 C 94 % 9.77 C
Sensor: Nr:Datum:Temp:Feuchte:Taupunkt:
Aussen-T/F 376 16-07-2019 07:15:00 10.8 C 94 % 9.87 C
377 16-07-2019 07:20:00 10.8 C 94 % 9.87 C
378 16-07-2019 07:25:00 10.9 C 94 % 9.97 C
379 16-07-2019 07:30:00 11 C 94 % 10.07 C
380 16-07-2019 07:35:00 11.2 C 94 % 10.27 C
381 16-07-2019 07:40:00 11.2 C 94 % 10.27 C
382 16-07-2019 07:45:00 11.3 C 93 % 10.21 C
383 16-07-2019 07:50:00 11.4 C 93 % 10.31 C
384 16-07-2019 07:55:00 11.6 C 93 % 10.51 C
385 16-07-2019 08:00:00 11.7 C 93 % 10.61 C
386 16-07-2019 08:05:00 11.8 C 93 % 10.71 C
387 16-07-2019 08:10:00 11.9 C 92 % 10.64 C
388 16-07-2019 08:15:00 12.1 C 92 % 10.84 C
389 16-07-2019 08:20:00 12.3 C 92 % 11.04 C
390 16-07-2019 08:25:00 12.4 C 91 % 10.97 C
391 16-07-2019 08:30:00 12.7 C 91 % 11.27 C
392 16-07-2019 08:35:00 12.8 C 90 % 11.2 C
393 16-07-2019 08:40:00 13.1 C 90 % 11.5 C
394 16-07-2019 08:45:00 13.3 C 89 % 11.53 C
395 16-07-2019 08:50:00 13.6 C 88 % 11.65 C
396 16-07-2019 08:55:00 13.8 C 88 % 11.85 C
397 16-07-2019 09:00:00 13.9 C 87 % 11.77 C
398 16-07-2019 09:05:00 14 C 86 % 11.7 C
399 16-07-2019 09:10:00 14.2 C 86 % 11.89 C
400 16-07-2019 09:15:00 14.3 C 86 % 11.99 C
Sensor: Nr:Datum:Temp:Feuchte:Taupunkt:
Aussen-T/F 401 16-07-2019 09:20:00 14.5 C 86 % 12.19 C
402 16-07-2019 09:25:00 14.7 C 84 % 12.03 C
403 16-07-2019 09:30:00 14.8 C 84 % 12.12 C
404 16-07-2019 09:35:00 14.8 C 83 % 11.94 C
405 16-07-2019 09:40:00 14.9 C 83 % 12.04 C
406 16-07-2019 09:45:00 14.9 C 83 % 12.04 C
407 16-07-2019 09:50:00 15 C 81 % 11.77 C
408 16-07-2019 09:55:00 15 C 81 % 11.77 C
409 16-07-2019 10:00:00 15.1 C 80 % 11.68 C
410 16-07-2019 10:05:00 15.3 C 80 % 11.87 C
411 16-07-2019 10:10:00 15.4 C 78 % 11.59 C
412 16-07-2019 10:15:00 15.4 C 78 % 11.59 C
413 16-07-2019 10:20:00 15.4 C 78 % 11.59 C
414 16-07-2019 10:25:00 15.5 C 77 % 11.49 C
415 16-07-2019 10:30:00 15.5 C 76 % 11.29 C
416 16-07-2019 10:35:00 15.6 C 77 % 11.59 C
417 16-07-2019 10:40:00 15.7 C 77 % 11.68 C
418 16-07-2019 10:45:00 15.7 C 77 % 11.68 C
419 16-07-2019 10:50:00 15.8 C 76 % 11.58 C
420 16-07-2019 10:55:00 15.8 C 76 % 11.58 C
421 16-07-2019 11:00:00 15.9 C 75 % 11.48 C
422 16-07-2019 11:05:00 15.9 C 75 % 11.48 C
423 16-07-2019 11:10:00 16 C 75 % 11.57 C
424 16-07-2019 11:15:00 16 C 75 % 11.57 C
425 16-07-2019 11:20:00 16.1 C 75 % 11.67 C
Sensor: Nr:Datum:Temp:Feuchte:Taupunkt:
Aussen-T/F 426 16-07-2019 11:25:00 16.1 C 75 % 11.67 C
427 16-07-2019 11:30:00 15.9 C 75 % 11.48 C
428 16-07-2019 11:35:00 15.8 C 75 % 11.38 C
429 16-07-2019 11:40:00 15.9 C 75 % 11.48 C
430 16-07-2019 11:45:00 16 C 74 % 11.37 C
431 16-07-2019 11:50:00 16.1 C 73 % 11.26 C
432 16-07-2019 11:55:00 16.2 C 74 % 11.56 C
433 16-07-2019 12:00:00 16.3 C 73 % 11.46 C
434 16-07-2019 12:05:00 16.3 C 73 % 11.46 C
435 16-07-2019 12:10:00 16.4 C 73 % 11.55 C
436 16-07-2019 12:15:00 16.5 C 73 % 11.65 C
437 16-07-2019 12:20:00 16.6 C 73 % 11.74 C
438 16-07-2019 12:25:00 16.7 C 72 % 11.63 C
439 16-07-2019 12:30:00 16.8 C 71 % 11.52 C
440 16-07-2019 12:35:00 16.9 C 71 % 11.61 C
441 16-07-2019 12:40:00 17 C 71 % 11.71 C
442 16-07-2019 12:45:00 17 C 71 % 11.71 C
443 16-07-2019 12:50:00 17.1 C 71 % 11.8 C
444 16-07-2019 12:55:00 17.1 C 70 % 11.59 C
445 16-07-2019 13:00:00 17.2 C 70 % 11.68 C
446 16-07-2019 13:05:00 17.2 C 71 % 11.9 C
447 16-07-2019 13:10:00 17.3 C 70 % 11.78 C
448 16-07-2019 13:15:00 17.3 C 70 % 11.78 C
449 16-07-2019 13:20:00 17.3 C 69 % 11.56 C
450 16-07-2019 13:25:00 17.2 C 70 % 11.68 C
Sensor: Nr:Datum:Temp:Feuchte:Taupunkt:
Aussen-T/F 451 16-07-2019 13:30:00 17.3 C 71 % 12 C
452 16-07-2019 13:35:00 17.7 C 70 % 12.16 C
453 16-07-2019 13:40:00 17.7 C 68 % 11.72 C
454 16-07-2019 13:45:00 17.6 C 67 % 11.4 C
455 16-07-2019 13:50:00 17.5 C 69 % 11.75 C
456 16-07-2019 13:55:00 17.6 C 68 % 11.63 C
457 16-07-2019 14:00:00 17.6 C 70 % 12.07 C
458 16-07-2019 14:05:00 17.7 C 68 % 11.72 C
459 16-07-2019 14:10:00 17.9 C 68 % 11.91 C
460 16-07-2019 14:15:00 18 C 68 % 12.01 C
461 16-07-2019 14:20:00 18.2 C 67 % 11.98 C
462 16-07-2019 14:25:00 18.3 C 66 % 11.84 C
463 16-07-2019 14:30:00 18.4 C 65 % 11.71 C
464 16-07-2019 14:35:00 18.6 C 65 % 11.9 C
465 16-07-2019 14:40:00 18.8 C 66 % 12.32 C
466 16-07-2019 14:45:00 18.9 C 65 % 12.18 C
467 16-07-2019 14:50:00 19 C 65 % 12.28 C
468 16-07-2019 14:55:00 19.2 C 65 % 12.47 C
469 16-07-2019 15:00:00 19.3 C 64 % 12.32 C
470 16-07-2019 15:05:00 19.4 C 64 % 12.42 C
471 16-07-2019 15:10:00 19.6 C 63 % 12.37 C
472 16-07-2019 15:15:00 19.6 C 62 % 12.13 C
473 16-07-2019 15:20:00 19.7 C 62 % 12.22 C
474 16-07-2019 15:25:00 20 C 61 % 12.26 C
475 16-07-2019 15:30:00 20.4 C 62 % 12.88 C
Sensor: Nr:Datum:Temp:Feuchte:Taupunkt:
Aussen-T/F 476 16-07-2019 15:35:00 20.8 C 60 % 12.76 C
477 16-07-2019 15:40:00 21.2 C 60 % 13.13 C
478 16-07-2019 15:45:00 21.3 C 57 % 12.44 C
479 16-07-2019 15:50:00 21.2 C 59 % 12.87 C
480 16-07-2019 15:55:00 21.4 C 57 % 12.53 C
481 16-07-2019 16:00:00 21.7 C 58 % 13.08 C
482 16-07-2019 16:05:00 22.1 C 58 % 13.45 C
483 16-07-2019 16:10:00 22.2 C 55 % 12.73 C
484 16-07-2019 16:15:00 22.3 C 55 % 12.83 C
485 16-07-2019 16:20:00 22.5 C 55 % 13.01 C
486 16-07-2019 16:25:00 22.7 C 54 % 12.92 C
487 16-07-2019 16:30:00 22.7 C 53 % 12.63 C
488 16-07-2019 16:35:00 22.6 C 52 % 12.25 C
489 16-07-2019 16:40:00 22.3 C 54 % 12.55 C
490 16-07-2019 16:45:00 22.1 C 55 % 12.64 C
491 16-07-2019 16:50:00 22.2 C 55 % 12.73 C
492 16-07-2019 16:55:00 22.4 C 54 % 12.64 C
493 16-07-2019 17:00:00 22.5 C 54 % 12.73 C
494 16-07-2019 17:05:00 22.7 C 53 % 12.63 C
495 16-07-2019 17:10:00 22.8 C 52 % 12.43 C
496 16-07-2019 17:15:00 22.7 C 53 % 12.63 C
497 16-07-2019 17:20:00 22.6 C 53 % 12.54 C
498 16-07-2019 17:25:00 22.7 C 54 % 12.92 C
499 16-07-2019 17:30:00 22.9 C 54 % 13.1 C
500 16-07-2019 17:35:00 23 C 53 % 12.91 C
Sensor: Nr:Datum:Temp:Feuchte:Taupunkt:
Aussen-T/F 501 16-07-2019 17:40:00 23 C 53 % 12.91 C
502 16-07-2019 17:45:00 22.9 C 53 % 12.82 C
503 16-07-2019 17:50:00 22.9 C 52 % 12.53 C
504 16-07-2019 17:55:00 22.9 C 53 % 12.82 C
505 16-07-2019 18:00:00 22.8 C 53 % 12.73 C
506 16-07-2019 18:05:00 22.8 C 53 % 12.73 C
507 16-07-2019 18:10:00 22.8 C 52 % 12.43 C
508 16-07-2019 18:15:00 22.9 C 53 % 12.82 C
509 16-07-2019 18:20:00 23.2 C 52 % 12.8 C
510 16-07-2019 18:25:00 23.3 C 51 % 12.6 C
511 16-07-2019 18:30:00 23.4 C 50 % 12.39 C
512 16-07-2019 18:35:00 23.3 C 51 % 12.6 C
513 16-07-2019 18:40:00 23.2 C 52 % 12.8 C
514 16-07-2019 18:45:00 23.2 C 52 % 12.8 C
515 16-07-2019 18:50:00 23.1 C 52 % 12.71 C
516 16-07-2019 18:55:00 22.9 C 53 % 12.82 C
517 16-07-2019 19:00:00 23 C 52 % 12.62 C
518 16-07-2019 19:05:00 23 C 53 % 12.91 C
519 16-07-2019 19:10:00 22.9 C 52 % 12.53 C
520 16-07-2019 19:15:00 22.8 C 52 % 12.43 C
521 16-07-2019 19:20:00 22.4 C 53 % 12.36 C
522 16-07-2019 19:25:00 22.1 C 54 % 12.36 C
523 16-07-2019 19:30:00 21.9 C 55 % 12.46 C
524 16-07-2019 19:35:00 21.7 C 55 % 12.27 C
525 16-07-2019 19:40:00 21.5 C 55 % 12.08 C
Sensor: Nr:Datum:Temp:Feuchte:Taupunkt:
Aussen-T/F 526 16-07-2019 19:45:00 21.4 C 56 % 12.27 C
527 16-07-2019 19:50:00 21.4 C 56 % 12.27 C
528 16-07-2019 19:55:00 21.4 C 57 % 12.53 C
529 16-07-2019 20:00:00 21.4 C 56 % 12.27 C
530 16-07-2019 20:05:00 21.4 C 57 % 12.53 C
531 16-07-2019 20:10:00 21.3 C 56 % 12.17 C
532 16-07-2019 20:15:00 21.3 C 57 % 12.44 C
533 16-07-2019 20:20:00 21.1 C 57 % 12.25 C
534 16-07-2019 20:25:00 21 C 58 % 12.43 C
535 16-07-2019 20:30:00 20.8 C 58 % 12.24 C
536 16-07-2019 20:35:00 20.6 C 59 % 12.31 C
537 16-07-2019 20:40:00 20.4 C 59 % 12.12 C
538 16-07-2019 20:45:00 20.3 C 60 % 12.29 C
539 16-07-2019 20:50:00 20.2 C 61 % 12.44 C
540 16-07-2019 20:55:00 20 C 62 % 12.5 C
541 16-07-2019 21:00:00 19.9 C 64 % 12.89 C
542 16-07-2019 21:05:00 19.7 C 65 % 12.94 C
543 16-07-2019 21:10:00 19.6 C 66 % 13.08 C
544 16-07-2019 21:15:00 19.2 C 67 % 12.93 C
545 16-07-2019 21:20:00 18.8 C 69 % 13 C
546 16-07-2019 21:25:00 18.4 C 70 % 12.83 C
547 16-07-2019 21:30:00 18.1 C 71 % 12.76 C
548 16-07-2019 21:35:00 17.8 C 72 % 12.69 C
549 16-07-2019 21:40:00 17.4 C 73 % 12.51 C
550 16-07-2019 21:45:00 17.2 C 74 % 12.53 C
Sensor: Nr:Datum:Temp:Feuchte:Taupunkt:
Aussen-T/F 551 16-07-2019 21:50:00 16.9 C 75 % 12.44 C
552 16-07-2019 21:55:00 16.7 C 76 % 12.45 C
553 16-07-2019 22:00:00 16.5 C 76 % 12.26 C
554 16-07-2019 22:05:00 16.3 C 77 % 12.26 C
555 16-07-2019 22:10:00 16.2 C 78 % 12.36 C
556 16-07-2019 22:15:00 16.1 C 78 % 12.27 C
557 16-07-2019 22:20:00 15.9 C 78 % 12.07 C
558 16-07-2019 22:25:00 15.8 C 79 % 12.17 C
559 16-07-2019 22:30:00 15.7 C 79 % 12.07 C
560 16-07-2019 22:35:00 15.7 C 80 % 12.26 C
561 16-07-2019 22:40:00 15.6 C 80 % 12.16 C
562 16-07-2019 22:45:00 15.6 C 80 % 12.16 C
563 16-07-2019 22:50:00 15.4 C 81 % 12.16 C
564 16-07-2019 22:55:00 15.4 C 80 % 11.97 C
565 16-07-2019 23:00:00 15.4 C 81 % 12.16 C
566 16-07-2019 23:05:00 15.4 C 81 % 12.16 C
567 16-07-2019 23:10:00 15.3 C 81 % 12.06 C
568 16-07-2019 23:15:00 15.3 C 81 % 12.06 C
569 16-07-2019 23:20:00 15.2 C 81 % 11.96 C
570 16-07-2019 23:25:00 15.1 C 81 % 11.87 C
571 16-07-2019 23:30:00 15.1 C 82 % 12.05 C
572 16-07-2019 23:35:00 15 C 82 % 11.95 C
573 16-07-2019 23:40:00 14.9 C 82 % 11.86 C
574 16-07-2019 23:45:00 14.8 C 83 % 11.94 C
575 16-07-2019 23:50:00 14.8 C 83 % 11.94 C
Sensor: Nr:Datum:Temp:Feuchte:Taupunkt:
Aussen-T/F 576 16-07-2019 23:55:00 14.7 C 83 % 11.85 C
577 17-07-2019 00:00:00 14.7 C 83 % 11.85 C
578 17-07-2019 00:05:00 14.6 C 83 % 11.75 C
579 17-07-2019 00:10:00 14.4 C 83 % 11.55 C
580 17-07-2019 00:15:00 14.3 C 83 % 11.45 C
581 17-07-2019 00:20:00 14.3 C 84 % 11.64 C
582 17-07-2019 00:25:00 14.1 C 84 % 11.44 C
583 17-07-2019 00:30:00 14 C 84 % 11.34 C
584 17-07-2019 00:35:00 13.9 C 85 % 11.42 C
585 17-07-2019 00:40:00 13.8 C 85 % 11.32 C
586 17-07-2019 00:45:00 13.7 C 86 % 11.4 C
587 17-07-2019 00:50:00 13.7 C 86 % 11.4 C
588 17-07-2019 00:55:00 13.6 C 86 % 11.3 C
589 17-07-2019 01:00:00 13.4 C 87 % 11.28 C
590 17-07-2019 01:05:00 13.3 C 87 % 11.18 C
591 17-07-2019 01:10:00 13.2 C 87 % 11.09 C
592 17-07-2019 01:15:00 13.2 C 88 % 11.26 C
593 17-07-2019 01:20:00 13.1 C 88 % 11.16 C
594 17-07-2019 01:25:00 13.1 C 88 % 11.16 C
595 17-07-2019 01:30:00 13.1 C 89 % 11.33 C
596 17-07-2019 01:35:00 13 C 89 % 11.23 C
597 17-07-2019 01:40:00 13 C 89 % 11.23 C
598 17-07-2019 01:45:00 12.9 C 89 % 11.13 C
599 17-07-2019 01:50:00 12.9 C 89 % 11.13 C
600 17-07-2019 01:55:00 12.8 C 89 % 11.03 C
Sensor: Nr:Datum:Temp:Feuchte:Taupunkt:
Aussen-T/F 601 17-07-2019 02:00:00 12.8 C 89 % 11.03 C
602 17-07-2019 02:05:00 12.7 C 89 % 10.94 C
603 17-07-2019 02:10:00 12.7 C 89 % 10.94 C
604 17-07-2019 02:15:00 12.6 C 89 % 10.84 C
605 17-07-2019 02:20:00 12.5 C 90 % 10.91 C
606 17-07-2019 02:25:00 12.4 C 90 % 10.81 C
607 17-07-2019 02:30:00 12.3 C 90 % 10.71 C
608 17-07-2019 02:35:00 12.3 C 90 % 10.71 C
609 17-07-2019 02:40:00 12.3 C 90 % 10.71 C
610 17-07-2019 02:45:00 12.2 C 90 % 10.61 C
611 17-07-2019 02:50:00 12.1 C 91 % 10.68 C
612 17-07-2019 02:55:00 12 C 90 % 10.41 C
613 17-07-2019 03:00:00 11.9 C 91 % 10.48 C
614 17-07-2019 03:05:00 11.8 C 91 % 10.38 C
615 17-07-2019 03:10:00 11.8 C 91 % 10.38 C
616 17-07-2019 03:15:00 11.7 C 91 % 10.28 C
617 17-07-2019 03:20:00 11.6 C 91 % 10.18 C
618 17-07-2019 03:25:00 11.6 C 92 % 10.35 C
619 17-07-2019 03:30:00 11.6 C 92 % 10.35 C
620 17-07-2019 03:35:00 11.6 C 92 % 10.35 C
621 17-07-2019 03:40:00 11.6 C 92 % 10.35 C
622 17-07-2019 03:45:00 11.5 C 92 % 10.25 C
623 17-07-2019 03:50:00 11.5 C 92 % 10.25 C
624 17-07-2019 03:55:00 11.5 C 92 % 10.25 C
625 17-07-2019 04:00:00 11.4 C 92 % 10.15 C
Sensor: Nr:Datum:Temp:Feuchte:Taupunkt:
Aussen-T/F 626 17-07-2019 04:05:00 11.4 C 93 % 10.31 C
627 17-07-2019 04:10:00 11.4 C 93 % 10.31 C
628 17-07-2019 04:15:00 11.3 C 93 % 10.21 C
629 17-07-2019 04:20:00 11.2 C 92 % 9.95 C
630 17-07-2019 04:25:00 11.2 C 93 % 10.11 C
631 17-07-2019 04:30:00 11.2 C 93 % 10.11 C
632 17-07-2019 04:35:00 11.2 C 93 % 10.11 C
633 17-07-2019 04:40:00 11.2 C 93 % 10.11 C
634 17-07-2019 04:45:00 11.1 C 93 % 10.01 C
635 17-07-2019 04:50:00 11.1 C 93 % 10.01 C
636 17-07-2019 04:55:00 11 C 93 % 9.91 C
637 17-07-2019 05:00:00 10.9 C 93 % 9.81 C
638 17-07-2019 05:05:00 10.9 C 93 % 9.81 C
639 17-07-2019 05:10:00 10.9 C 93 % 9.81 C
640 17-07-2019 05:15:00 10.9 C 94 % 9.97 C
641 17-07-2019 05:20:00 10.9 C 94 % 9.97 C
642 17-07-2019 05:25:00 10.9 C 94 % 9.97 C
643 17-07-2019 05:30:00 10.9 C 94 % 9.97 C
644 17-07-2019 05:35:00 10.8 C 94 % 9.87 C
645 17-07-2019 05:40:00 10.8 C 94 % 9.87 C
646 17-07-2019 05:45:00 10.7 C 94 % 9.77 C
647 17-07-2019 05:50:00 10.7 C 94 % 9.77 C
648 17-07-2019 05:55:00 10.7 C 94 % 9.77 C
649 17-07-2019 06:00:00 10.7 C 94 % 9.77 C
650 17-07-2019 06:05:00 10.7 C 94 % 9.77 C
Sensor: Nr:Datum:Temp:Feuchte:Taupunkt:
Aussen-T/F 651 17-07-2019 06:10:00 10.6 C 94 % 9.68 C
652 17-07-2019 06:15:00 10.6 C 94 % 9.68 C
653 17-07-2019 06:20:00 10.6 C 94 % 9.68 C
654 17-07-2019 06:25:00 10.7 C 94 % 9.77 C
655 17-07-2019 06:30:00 10.7 C 95 % 9.93 C
656 17-07-2019 06:35:00 10.7 C 95 % 9.93 C
657 17-07-2019 06:40:00 10.8 C 95 % 10.03 C
658 17-07-2019 06:45:00 10.9 C 95 % 10.13 C
659 17-07-2019 06:50:00 10.9 C 95 % 10.13 C
660 17-07-2019 06:55:00 11 C 95 % 10.23 C
661 17-07-2019 07:00:00 11.1 C 95 % 10.33 C
662 17-07-2019 07:05:00 11.1 C 95 % 10.33 C
663 17-07-2019 07:10:00 11.2 C 95 % 10.43 C
664 17-07-2019 07:15:00 11.2 C 95 % 10.43 C
665 17-07-2019 07:20:00 11.3 C 95 % 10.53 C
666 17-07-2019 07:25:00 11.4 C 95 % 10.63 C
667 17-07-2019 07:30:00 11.6 C 95 % 10.83 C
668 17-07-2019 07:35:00 11.7 C 95 % 10.93 C
669 17-07-2019 07:40:00 11.8 C 95 % 11.03 C
670 17-07-2019 07:45:00 11.8 C 96 % 11.18 C
671 17-07-2019 07:50:00 11.9 C 95 % 11.13 C
672 17-07-2019 07:55:00 12.1 C 95 % 11.32 C
673 17-07-2019 08:00:00 12.2 C 96 % 11.58 C
674 17-07-2019 08:05:00 12.3 C 95 % 11.52 C
675 17-07-2019 08:10:00 12.4 C 95 % 11.62 C
Sensor: Nr:Datum:Temp:Feuchte:Taupunkt:
Aussen-T/F 676 17-07-2019 08:15:00 12.6 C 95 % 11.82 C
677 17-07-2019 08:20:00 12.6 C 95 % 11.82 C
678 17-07-2019 08:25:00 12.7 C 95 % 11.92 C
679 17-07-2019 08:30:00 12.8 C 95 % 12.02 C
680 17-07-2019 08:35:00 12.9 C 94 % 11.96 C
681 17-07-2019 08:40:00 13.1 C 94 % 12.16 C
682 17-07-2019 08:45:00 13.2 C 94 % 12.26 C
683 17-07-2019 08:50:00 13.3 C 93 % 12.19 C
684 17-07-2019 08:55:00 13.4 C 93 % 12.29 C
685 17-07-2019 09:00:00 13.7 C 93 % 12.59 C
686 17-07-2019 09:05:00 13.8 C 92 % 12.52 C
687 17-07-2019 09:10:00 14.1 C 92 % 12.82 C
688 17-07-2019 09:15:00 14.3 C 90 % 12.68 C
689 17-07-2019 09:20:00 14.5 C 90 % 12.88 C
690 17-07-2019 09:25:00 14.7 C 89 % 12.91 C
691 17-07-2019 09:30:00 15 C 88 % 13.03 C
692 17-07-2019 09:35:00 15.3 C 87 % 13.15 C
693 17-07-2019 09:40:00 15.5 C 87 % 13.35 C
694 17-07-2019 09:45:00 15.7 C 86 % 13.37 C
695 17-07-2019 09:50:00 15.8 C 85 % 13.28 C
696 17-07-2019 09:55:00 15.9 C 84 % 13.2 C
697 17-07-2019 10:00:00 16.1 C 83 % 13.21 C
698 17-07-2019 10:05:00 16.3 C 82 % 13.22 C
699 17-07-2019 10:10:00 16.4 C 81 % 13.13 C
700 17-07-2019 10:15:00 16.6 C 81 % 13.33 C
Sensor: Nr:Datum:Temp:Feuchte:Taupunkt:
Aussen-T/F 701 17-07-2019 10:20:00 16.8 C 80 % 13.33 C
702 17-07-2019 10:25:00 17.2 C 77 % 13.14 C
703 17-07-2019 10:30:00 17.5 C 76 % 13.23 C
704 17-07-2019 10:35:00 17.8 C 75 % 13.31 C
705 17-07-2019 10:40:00 17.9 C 74 % 13.2 C
706 17-07-2019 10:45:00 18 C 73 % 13.09 C
707 17-07-2019 10:50:00 18.1 C 74 % 13.4 C
708 17-07-2019 10:55:00 18.1 C 73 % 13.19 C
709 17-07-2019 11:00:00 18.2 C 73 % 13.28 C
710 17-07-2019 11:05:00 18.1 C 73 % 13.19 C
711 17-07-2019 11:10:00 18.2 C 73 % 13.28 C
712 17-07-2019 11:15:00 18.3 C 72 % 13.17 C
713 17-07-2019 11:20:00 18.5 C 72 % 13.36 C
714 17-07-2019 11:25:00 18.6 C 71 % 13.24 C
715 17-07-2019 11:30:00 18.7 C 72 % 13.55 C
716 17-07-2019 11:35:00 18.7 C 71 % 13.34 C
717 17-07-2019 11:40:00 18.7 C 71 % 13.34 C
718 17-07-2019 11:45:00 18.8 C 71 % 13.43 C
719 17-07-2019 11:50:00 19 C 71 % 13.63 C
720 17-07-2019 11:55:00 19.2 C 70 % 13.6 C
721 17-07-2019 12:00:00 19.1 C 69 % 13.28 C
722 17-07-2019 12:05:00 19.1 C 70 % 13.5 C
723 17-07-2019 12:10:00 19.2 C 70 % 13.6 C
724 17-07-2019 12:15:00 19.2 C 70 % 13.6 C
725 17-07-2019 12:20:00 19.3 C 70 % 13.69 C
Sensor: Nr:Datum:Temp:Feuchte:Taupunkt:
Aussen-T/F 726 17-07-2019 12:25:00 19.3 C 70 % 13.69 C
727 17-07-2019 12:30:00 19.4 C 69 % 13.57 C
728 17-07-2019 12:35:00 19.4 C 68 % 13.34 C
729 17-07-2019 12:40:00 19.6 C 68 % 13.54 C
730 17-07-2019 12:45:00 19.6 C 67 % 13.31 C
731 17-07-2019 12:50:00 19.7 C 67 % 13.4 C
732 17-07-2019 12:55:00 19.8 C 67 % 13.5 C
733 17-07-2019 13:00:00 19.8 C 67 % 13.5 C
734 17-07-2019 13:05:00 19.8 C 66 % 13.27 C
735 17-07-2019 13:10:00 19.8 C 65 % 13.03 C
736 17-07-2019 13:15:00 20 C 65 % 13.22 C
737 17-07-2019 13:20:00 20.3 C 64 % 13.27 C
738 17-07-2019 13:25:00 20.6 C 64 % 13.55 C
739 17-07-2019 13:30:00 20.7 C 63 % 13.41 C
740 17-07-2019 13:35:00 20.9 C 61 % 13.1 C
741 17-07-2019 13:40:00 20.9 C 60 % 12.85 C
742 17-07-2019 13:45:00 20.9 C 60 % 12.85 C
743 17-07-2019 13:50:00 21.1 C 60 % 13.04 C
744 17-07-2019 13:55:00 21.2 C 60 % 13.13 C
745 17-07-2019 14:00:00 21.1 C 59 % 12.78 C
746 17-07-2019 14:05:00 21.1 C 60 % 13.04 C
747 17-07-2019 14:10:00 21.3 C 60 % 13.22 C
748 17-07-2019 14:15:00 21.5 C 57 % 12.63 C
749 17-07-2019 14:20:00 21.5 C 58 % 12.89 C
750 17-07-2019 14:25:00 21.7 C 60 % 13.6 C
Sensor: Nr:Datum:Temp:Feuchte:Taupunkt:
Aussen-T/F 751 17-07-2019 14:30:00 21.9 C 59 % 13.53 C
752 17-07-2019 14:35:00 21.9 C 60 % 13.79 C
753 17-07-2019 14:40:00 22.1 C 58 % 13.45 C
754 17-07-2019 14:45:00 22.1 C 58 % 13.45 C
755 17-07-2019 14:50:00 22 C 59 % 13.62 C
756 17-07-2019 14:55:00 22.1 C 59 % 13.72 C
757 17-07-2019 15:00:00 22.3 C 61 % 14.42 C
758 17-07-2019 15:05:00 22.3 C 58 % 13.64 C
759 17-07-2019 15:10:00 22.3 C 58 % 13.64 C
760 17-07-2019 15:15:00 22.3 C 60 % 14.16 C
761 17-07-2019 15:20:00 22.4 C 59 % 14 C
762 17-07-2019 15:25:00 22.7 C 58 % 14.01 C
763 17-07-2019 15:30:00 22.7 C 56 % 13.47 C
764 17-07-2019 15:35:00 22.8 C 58 % 14.11 C
765 17-07-2019 15:40:00 22.9 C 57 % 13.93 C
766 17-07-2019 15:45:00 23.1 C 57 % 14.12 C
767 17-07-2019 15:50:00 23.2 C 56 % 13.94 C
768 17-07-2019 15:55:00 23.3 C 58 % 14.58 C
769 17-07-2019 16:00:00 23.3 C 55 % 13.76 C
770 17-07-2019 16:05:00 23.3 C 57 % 14.31 C
771 17-07-2019 16:10:00 23.2 C 56 % 13.94 C
772 17-07-2019 16:15:00 23.1 C 56 % 13.85 C
773 17-07-2019 16:20:00 23.2 C 58 % 14.48 C
774 17-07-2019 16:25:00 23.7 C 55 % 14.13 C
775 17-07-2019 16:30:00 23.9 C 54 % 14.03 C
Sensor: Nr:Datum:Temp:Feuchte:Taupunkt:
Aussen-T/F 776 17-07-2019 16:35:00 24.1 C 54 % 14.21 C
777 17-07-2019 16:40:00 24.1 C 53 % 13.93 C
778 17-07-2019 16:45:00 24.1 C 54 % 14.21 C
779 17-07-2019 16:50:00 24.2 C 53 % 14.02 C
780 17-07-2019 16:55:00 23.9 C 54 % 14.03 C
781 17-07-2019 17:00:00 23.7 C 55 % 14.13 C
782 17-07-2019 17:05:00 24 C 54 % 14.12 C
783 17-07-2019 17:10:00 24.3 C 54 % 14.4 C
784 17-07-2019 17:15:00 24.6 C 54 % 14.68 C
785 17-07-2019 17:20:00 24.6 C 52 % 14.09 C
786 17-07-2019 17:25:00 24.7 C 53 % 14.48 C
787 17-07-2019 17:30:00 24.8 C 53 % 14.57 C
788 17-07-2019 17:35:00 24.8 C 52 % 14.28 C
789 17-07-2019 17:40:00 24.7 C 52 % 14.19 C
790 17-07-2019 17:45:00 24.9 C 53 % 14.66 C
791 17-07-2019 17:50:00 25 C 51 % 14.16 C
792 17-07-2019 17:55:00 24.8 C 53 % 14.57 C
793 17-07-2019 18:00:00 24.8 C 53 % 14.57 C
794 17-07-2019 18:05:00 24.7 C 53 % 14.48 C
795 17-07-2019 18:10:00 24.7 C 52 % 14.19 C
796 17-07-2019 18:15:00 24.6 C 53 % 14.39 C
797 17-07-2019 18:20:00 24.4 C 53 % 14.2 C
798 17-07-2019 18:25:00 24.2 C 54 % 14.31 C
799 17-07-2019 18:30:00 24.1 C 55 % 14.5 C
800 17-07-2019 18:35:00 23.9 C 55 % 14.31 C
Sensor: Nr:Datum:Temp:Feuchte:Taupunkt:
Aussen-T/F 801 17-07-2019 18:40:00 23.8 C 56 % 14.5 C
802 17-07-2019 18:45:00 23.9 C 56 % 14.59 C
803 17-07-2019 18:50:00 23.9 C 55 % 14.31 C
804 17-07-2019 18:55:00 23.9 C 55 % 14.31 C
805 17-07-2019 19:00:00 23.7 C 57 % 14.68 C
806 17-07-2019 19:05:00 23.7 C 57 % 14.68 C
807 17-07-2019 19:10:00 23.9 C 56 % 14.59 C
808 17-07-2019 19:15:00 23.7 C 57 % 14.68 C
809 17-07-2019 19:20:00 23.6 C 58 % 14.86 C
810 17-07-2019 19:25:00 23.6 C 57 % 14.59 C
811 17-07-2019 19:30:00 23.3 C 58 % 14.58 C
812 17-07-2019 19:35:00 23.1 C 59 % 14.65 C
813 17-07-2019 19:40:00 22.7 C 60 % 14.54 C
814 17-07-2019 19:45:00 22.5 C 60 % 14.35 C
815 17-07-2019 19:50:00 22.4 C 61 % 14.51 C
816 17-07-2019 19:55:00 22.3 C 62 % 14.67 C
817 17-07-2019 20:00:00 22.2 C 61 % 14.32 C
818 17-07-2019 20:05:00 22.2 C 61 % 14.32 C
819 17-07-2019 20:10:00 22.1 C 62 % 14.48 C
820 17-07-2019 20:15:00 21.9 C 63 % 14.54 C
821 17-07-2019 20:20:00 21.8 C 64 % 14.69 C
822 17-07-2019 20:25:00 21.6 C 65 % 14.74 C
823 17-07-2019 20:30:00 21.4 C 65 % 14.55 C
824 17-07-2019 20:35:00 21.3 C 65 % 14.46 C
825 17-07-2019 20:40:00 21.2 C 65 % 14.36 C
Sensor: Nr:Datum:Temp:Feuchte:Taupunkt:
Aussen-T/F 826 17-07-2019 20:45:00 21 C 66 % 14.41 C
827 17-07-2019 20:50:00 20.9 C 67 % 14.55 C
828 17-07-2019 20:55:00 20.7 C 67 % 14.36 C
829 17-07-2019 21:00:00 20.6 C 68 % 14.49 C
830 17-07-2019 21:05:00 20.4 C 68 % 14.3 C
831 17-07-2019 21:10:00 20.3 C 68 % 14.2 C
832 17-07-2019 21:15:00 20.2 C 69 % 14.33 C
833 17-07-2019 21:20:00 20.1 C 69 % 14.24 C
834 17-07-2019 21:25:00 20.1 C 70 % 14.46 C
835 17-07-2019 21:30:00 19.9 C 71 % 14.49 C
836 17-07-2019 21:35:00 19.6 C 71 % 14.2 C
837 17-07-2019 21:40:00 19.3 C 72 % 14.13 C
838 17-07-2019 21:45:00 18.9 C 73 % 13.96 C
839 17-07-2019 21:50:00 18.6 C 74 % 13.88 C
840 17-07-2019 21:55:00 18.3 C 75 % 13.79 C
841 17-07-2019 22:00:00 18 C 76 % 13.71 C
842 17-07-2019 22:05:00 17.7 C 77 % 13.62 C
843 17-07-2019 22:10:00 17.5 C 78 % 13.62 C
844 17-07-2019 22:15:00 17.3 C 79 % 13.63 C
845 17-07-2019 22:20:00 17.2 C 80 % 13.72 C
846 17-07-2019 22:25:00 17.1 C 80 % 13.62 C
847 17-07-2019 22:30:00 16.9 C 81 % 13.62 C
848 17-07-2019 22:35:00 16.8 C 81 % 13.52 C
849 17-07-2019 22:40:00 16.7 C 81 % 13.43 C
850 17-07-2019 22:45:00 16.6 C 82 % 13.52 C
Sensor: Nr:Datum:Temp:Feuchte:Taupunkt:
Aussen-T/F 851 17-07-2019 22:50:00 16.4 C 82 % 13.32 C
852 17-07-2019 22:55:00 16.4 C 83 % 13.51 C
853 17-07-2019 23:00:00 16.3 C 84 % 13.59 C
854 17-07-2019 23:05:00 16.3 C 84 % 13.59 C
855 17-07-2019 23:10:00 16.3 C 84 % 13.59 C
856 17-07-2019 23:15:00 16.2 C 84 % 13.5 C
857 17-07-2019 23:20:00 16.2 C 84 % 13.5 C
858 17-07-2019 23:25:00 16.1 C 84 % 13.4 C
859 17-07-2019 23:30:00 16 C 85 % 13.48 C
860 17-07-2019 23:35:00 15.9 C 85 % 13.38 C
861 17-07-2019 23:40:00 15.8 C 85 % 13.28 C
862 17-07-2019 23:45:00 15.8 C 85 % 13.28 C
863 17-07-2019 23:50:00 15.7 C 85 % 13.19 C
864 17-07-2019 23:55:00 15.7 C 85 % 13.19 C

Legende:
   Min
   Max


Maximal/Minimal-Werte vom 15.07.2019 - 17.07.2019

Sensor Min Max Avg
Temp
(Aussen-T/F)
9.8 °C
16-07-2019  05:45:00
25 °C
17-07-2019  17:50:00
16.53 °C
Feuchte
(Aussen-T/F)
50 %
16-07-2019  18:30:00
96 %
17-07-2019  07:45:00
75.21 %
Taupunkt
(Aussen-T/F)
8.72 C
16-07-2019  05:45:00
14.86 C
17-07-2019  19:20:00
11.87 C

Die Daten stammen von einer Davis Vantage Pro 2 Wetter-Station und werden unter Linux mit der Software wview2wettercgi und aufbereitet. Alle Angaben erfolgen ohne Gewähr für ihre Vollständigkeit oder Richtigkeit.
Kontakt: Rainer Krienke krienke@uni-koblenz.de . Meine Webseiten an der Uni Koblenz oder privat.
Version: $Revision: 0.78 $